[Iaude] MPEC H83: 2024 HQ1 [a=1.64,e=0.38,i=0.2,H=28.3]

mpec at cfa.harvard.edu mpec at cfa.harvard.edu
Sun Apr 28 17:50:55 EDT 2024


M.P.E.C. 2024-H83                                Issued 2024 April 28, 21:49 UT

     The Minor Planet Electronic Circulars contain information on unusual
         minor planets, routine data on comets and natural satellites,
         and occasional editorial announcements.  They are published
    on behalf of Division F of the International Astronomical Union by the
          Minor Planet Center, Smithsonian Astrophysical Observatory,
                          Cambridge, MA 02138, U.S.A.
			  
             Prepared using the Tamkin Foundation Computer Network

                              MPC at CFA.HARVARD.EDU
            URL https://www.minorplanetcenter.net/    ISSN 1523-6714

                                    2024 HQ1                                    


Observations:
     K24H01Q*KB2024 04 27.83591 12 11 49.36 +17 23 39.5          20.5 GXEH083G03
     K24H01Q KB2024 04 27.84254 12 12 03.76 +17 23 49.7          20.4 GXEH083G03
     K24H01Q KB2024 04 27.84918 12 12 18.22 +17 23 59.4          18.9 GXEH083G03
     K24H01Q KC2024 04 27.91042 12 14 31.44 +17 24 57.0          19.5 VZEH083M38
     K24H01Q KC2024 04 27.91820 12 14 50.28 +17 25 06.2          19.8 GVEH083K88
     K24H01Q KC2024 04 27.92168 12 14 58.13 +17 25 09.0          19.8 GVEH083K88
     K24H01Q KC2024 04 27.92354 12 15 01.25 +17 25 07.4          19.4 VZEH083M38
     K24H01Q KC2024 04 27.92516 12 15 06.13 +17 25 10.9          19.7 GVEH083K88
     K24H01Q KC2024 04 27.96025612 16 32.31 +17 25 10.2          19.9 GVEH083K62
     K24H01Q KC2024 04 27.96156312 16 35.43 +17 25 10.5          19.9 GVEH083K62
     K24H01Q KC2024 04 27.96418112 16 41.58 +17 25 12.4          19.8 GVEH083K62
     K24H01Q KC2024 04 27.96994712 16 55.22 +17 25 15.5          19.9 GVEH083K62
     K24H01Q KC2024 04 27.97126112 16 58.38 +17 25 15.5          20.1 GVEH083K62
     K24H01Q KB2024 04 27.99021512 17 49.69 +17 27 20.5          19.9 GXEH083958
     K24H01Q KB2024 04 27.99552412 18 02.26 +17 27 23.4          19.2 GXEH083958
     K24H01Q KB2024 04 28.00008512 18 13.10 +17 27 27.0          19.7 GXEH083958
     K24H01Q |C2024 04 28.02147112 20 00.900+17 45 12.70         19.3 GVEH083807
     K24H01Q |C2024 04 28.02418012 20 07.410+17 45 18.50         19.6 GVEH083807
     K24H01Q |C2024 04 28.02694012 20 13.980+17 45 23.40         19.5 GVEH083807
     K24H01Q |C2024 04 28.02961012 20 20.310+17 45 29.20         19.7 GVEH083807
     K24H01Q KC2024 04 28.14325812 25 32.527+17 32 33.50         19.66GVEH083I52
     K24H01Q KC2024 04 28.14383912 25 34.007+17 32 34.51         20.31GVEH083I52
     K24H01Q KC2024 04 28.14442512 25 35.494+17 32 35.38         19.50GVEH083I52
     K24H01Q KC2024 04 28.14500912 25 36.988+17 32 36.46         19.08GVEH083I52
     K24H01Q KB2024 04 28.47003412 42 25.462+17 34 22.02         19.5 GXEH083Q06
     K24H01Q KB2024 04 28.47841712 42 51.241+17 34 28.08         19.4 GXEH083Q06
     K24H01Q KB2024 04 28.48680112 43 17.286+17 34 33.17         19.1 GXEH083Q06
     K24H01Q KC2024 04 28.84149 13 05 38.49 +17 27 29.6          18.9 GVEH083C82
     K24H01Q KC2024 04 28.84736 13 06 01.17 +17 27 21.7          19.1 GVEH083C82
     K24H01Q KC2024 04 28.84856113 06 04.64 +17 25 47.1                XEH083595
     K24H01Q KC2024 04 28.85282313 06 21.17 +17 25 40.4          19.7 GXEH083595
     K24H01Q KC2024 04 28.85707113 06 37.75 +17 25 33.5          19.6 GXEH083595
     K24H01Q KC2024 04 28.86119013 07 06.54 +17 25 27.6          19.2 GXEH083I93
     K24H01Q KC2024 04 28.86492313 07 21.19 +17 25 22.2          18.9 GXEH083I93
     K24H01Q KC2024 04 28.86798013 07 30.907+17 23 21.70         19.0 GVEH083J95
     K24H01Q KC2024 04 28.86861913 07 35.76 +17 25 17.0          20.1 GXEH083I93
     K24H01Q KC2024 04 28.86971413 07 37.826+17 23 18.96         18.8 GVEH083J95
     K24H01Q KC2024 04 28.87140713 07 44.518+17 23 16.51         19.0 GVEH083J95
     K24H01Q KC2024 04 28.87379813 07 54.067+17 23 12.70         18.7 GVEH083J95

Observer details:
595 Farra d'Isonzo.  Observer E. Pettarin.  0.61-m f/4.5 reflector + CCD.
807 Cerro Tololo Observatory, La Serena.  Observers T. Linder, R. Holmes.
    0.61-m f/6.8 Ritchey-Chretien + CCD.
958 Observatoire de Dax.  Observer P. Dupouy.  0.50-m f/4.5 Reflector + CMO.
C82 Osservatorio Astronomico Nastro Verde, Sorrento.  Observer N. Ruocco.
    0.35-m f/6.3  Schmidt-Cassegrain + CCD.
G03 Capricornus Observatory, Csokako.  Observer T. Maroti.  0.28-m f/2.2
    reflector + CMO.
I52 Steward Observatory, Mt. Lemmon Station.  Observer R. A. Kowalski.
    Measurers T. Beuden, V. F. Carvajal, D. Fay, J. B. Fazekas, D. C. Fuls, A.
    R. Gibbs, A. D. Grauer, H. Groeller, J. K. Hogan, R. A. Kowalski, S. M.
    Larson, G. J. Leonard, D. Rankin, R. L. Seaman, F. C. Shelly, K. W.
    Wierzchos.  1.0-m prime focus + CCD.
I93 St Pardon de Conques.  Observer F. Losse.  0.40-m f/3.7 reflector + CCD.
J95 Great Shefford.  Observer P. Birtwhistle.  0.41-m f/6.3 Schmidt-Cassegrain
    + CCD.
K62 Teplice Observatory.  Observer Z. Moravec.  0.60-m f/3.3 reflector + CMOS.
K88 GINOP-KHK, Piszkesteto.  Observer K. Sarneczky.  0.60-m Schmidt + CCD.
M38 Harsona Observatory, Nyiregyhaza.  Observer T. Elek.  0.20-m f/3 reflector
    + CCD.
Q06 Tarui Observatory, Tarui.  Observer H. Watanabe.  0.35-m f/1.9 Schmidt-
    Cassegrain + CMO.

Orbital elements:
2024 HQ1                                                 Earth MOID = 0.0029 AU
Epoch 2024 Mar. 31.0 TT = JDT 2460400.5                 Veres                   
M 343.18936              (2000.0)            P               Q                  
n   0.47018285     Peri.  125.18385     -0.69042116     +0.72339988             
a   1.6379156      Node   101.15232     -0.66481960     -0.63267066             
e   0.3829643      Incl.    0.19580     -0.28519033     -0.27644249             
P   2.10           H   28.34          G   0.15           U   6                  
Residuals in seconds of arc
240427 G03  0.9-  0.4-    240427 958  1.3-  0.1+    240428 Q06  1.4+  1.9+
240427 G03  0.0   0.2+    240427 958  0.8-  0.0     240428 C82 (2.2+  0.6-)
240427 G03  0.8+  0.6+    240428 958  0.5-  1.1+    240428 C82 (3.6+  0.3-)
240427 M38  1.0+  0.1-    240428 807  0.5-  0.1+    240428 595  0.4+  0.2+
240427 K88  0.5+  0.3+    240428 807  0.6+  0.2+    240428 595  0.0   0.1+
240427 K88  0.5-  0.3+    240428 807 (0.7+  0.6-)   240428 595  0.6+  0.0
240427 M38  0.5+  0.0     240428 807  0.4+  0.3-    240428 I93  0.1+  0.1+
240427 K88  0.2+  0.5-    240428 I52  0.2-  0.1-    240428 I93  0.3-  0.1-
240427 K62  0.6-  0.4+    240428 I52  0.2-  0.1-    240428 J95  0.0   0.2-
240427 K62  0.0   0.1-    240428 I52  0.2-  0.1-    240428 I93  0.1-  0.1+
240427 K62  0.5-  0.2+    240428 I52  0.1-  0.0     240428 J95  0.3+  0.2-
240427 K62  0.8-  0.0     240428 Q06  1.6+  0.3+    240428 J95  0.4-  0.1+
240427 K62  0.3-  0.7-    240428 Q06  0.1+  1.2+    240428 J95  0.1-  0.1+

Ephemeris:
2024 HQ1                 a,e,i = 1.64, 0.38, 0                   q = 1.0107
Date    TT    R. A. (2000) Decl.     Delta      r    Elong.  Phase     V
2024 03 29    10 23 04.5 +12 16 04   0.1036  1.0845   144.6    32.3    25.0
...
2024 04 13    10 22 43.2 +13 58 02   0.05559 1.0386   129.1    48.6    24.0
...
2024 04 21    10 39 10.9 +15 06 49   0.03076 1.0226   124.4    54.2    22.8
...
2024 04 27    11 44 20.0 +17 07 07   0.01265 1.0148   131.0    48.4    20.7
2024 04 28    12 18 33.7 +17 34 22   0.0099121.0139   136.0    43.6    20.0
2024 04 29    13 16 43.2 +17 28 56   0.0075161.0131   143.8    35.9    19.2
...
2024 05 05    20 33 57.1 -08 34 46   0.01499 1.0102    95.9    83.2    22.2
...
2024 05 13    21 28 22.1 -12 07 16   0.03910 1.0124    91.8    85.9    24.3
...
2024 05 28    21 44 54.1 -13 19 48   0.08326 1.0351   102.8    72.7    25.6

M. P. C. Staff               (C) Copyright 2024 MPC           M.P.E.C. 2024-H83





More information about the Iaude mailing list